Location: Luxembourg
(49.6117°N, 6.1300°E)
Time: 19:23:11
(UTC+01:00)

X-37B - Pass Details

Date: 10 December 2021
Orbit: 334 x 337 km, 45.0° (Epoch: 11 January)

Event Time Altitude Azimuth Distance (km) Brightness Sun altitude
Rises 17:39:10 0° 223° (SW) 2,097 5.7 -9.8°
Reaches altitude 10° 17:41:36 10° 202° (SSW) 1,263 3.9 -10.1°
Maximum altitude 17:43:31 17° 159° (SSE) 952 2.6 -10.4°
Drops below altitude 10° 17:45:27 10° 115° (ESE) 1,266 2.8 -10.7°
Enters shadow 17:45:33 10° 114° (ESE) 1,293 2.8 -10.7°
